Regional Weather Roundup
Issued by NWS Wakefield, VA

Home | Current Version | Previous Version | Text Only | Print | Product List | Glossary Off
Versions: 1 2 3 4 5 6 7 8 9 10 11 12 13 14 15 16 17 18 19 20 21 22 23 24 25 26 27 28 29 30 31 32 33 34 35 36 37 38 39 40 41 42 43 44 45 46 47 48 49 50

000
ASUS41 KAKQ 040315
RWRAKQ

REGIONAL WEATHER ROUNDUP
NATIONAL WEATHER SERVICE WAKEFIELD VA
1100 PM EDT FRI JUL 03 2015

Note: "fair" indicates few or no clouds below 12,000 feet with no
significant weather and/or obstructions to visibility. * = Denotes
station may not report precipitation (e.g., rain,snow,etc.),
thunder or fog.

VAZ042-051-052>054-056-040400-
NORTHERN VIRGINIA

CITY           SKY/WX    TMP DP  RH WIND       PRES   REMARKS
WASH NATIONAL  LGT RAIN  74  66  76 SE5       29.95R
DULLES         CLOUDY    69  64  84 SE5       29.94R
FORT BELVOIR   CLOUDY    69  67  93 CALM      29.94R
QUANTICO       CLOUDY    74  66  76 S7        29.94S
FREDERICKSBRG* CLOUDY    72  72 100 CALM      29.92S
STAFFORD*      CLOUDY    69  65  86 CALM      29.97S
WARRENTON      LGT RAIN  70  69  97 CALM      29.94R
CULPEPER*      LGT RAIN  68  67  97 CALM      29.95R
MANASSAS*      CLOUDY    70  70 100 CALM        N/A
LEESBURG*      CLOUDY    73  66  78 S9        29.95S
WINCHESTER     DRIZZLE   70  68  94 SE3       29.94S
FRONT ROYAL*   CLOUDY    68  66  94 CALM      29.93S
LURAY*         CLOUDY    70  70 100 CALM      29.95R
$$

VAZ048-049-060>072-079>083-040400-
CENTRAL AND SOUTH CENTRAL VIRGINIA

CITY           SKY/WX    TMP DP  RH WIND       PRES   REMARKS
RICHMOND       RAIN      71  68  90 E7        29.91F FOG
CHESTERFIELD*  NOT AVBL
PETERSBURG*    RAIN      71  71 100 E9        29.90F
HANOVER        RAIN      70  68  93 CALM      29.93S FOG
TAPPAHANNOCK*  LGT RAIN  73  64  75 CALM      29.93S
QUINTON*       CLOUDY    70  69  98 E3        29.91F
CHARLOTTSVILLE CLOUDY    69  66  90 N5        29.94R
GORDONSVILLE*  CLOUDY    68  66  94 CALM      29.94R
ORANGE*        CLOUDY    70  68  94 CALM      29.96R
LOUISA*        CLOUDY    70  66  88 CALM      29.92S
BUMPASS*       MOCLDY    68  67  94 CALM      29.92S
FARMVILLE*     CLOUDY    71  71 100 CALM      29.91S FOG
CREWE*         CLOUDY    69  68  95 E3        29.89F
FORT PICKETT*  CLOUDY    69  68  98 N7        29.89S
CHASE CITY*    CLOUDY    72  72 100 CALM      29.90R
CLARKSVILLE*   CLOUDY    70  70 100 CALM      29.90R
SOUTH HILL*    CLOUDY    72  71  98 CALM      29.94R
LAWRENCEVILLE* NOT AVBL
EMPORIA*       LGT RAIN  70  70 100 CALM      29.89F
$$

VAZ088>098-040400-
SOUTHEAST VIRGINIA

CITY           SKY/WX    TMP DP  RH WIND       PRES   REMARKS
NORFOLK        LGT RAIN  75  71  87 E6        29.89F
VIRGINIA BEACH LGT RAIN  77  73  87 SE10      29.89S FOG
NORFOLK NAVAL  RAIN      74  72  93 E7        29.91F FOG
WEST POINT*    CLOUDY    73  69  86 E3        29.93S
SALUDA*        CLOUDY    74  68  82 SE9G16    29.91F
NEWPORT NEWS   CLOUDY    73  71  93 E5        29.90F FOG
LANGLEY AFB    CLOUDY    73  72  94 E9        29.89F
FORT EUSTIS    LGT RAIN  73  72  99 E6        29.88F
WILLIAMSBURG*  CLOUDY    73  73 100 E5        29.92S
HR EXEC AP*    MOCLDY    73  70  88 NE6       29.91F
FRANKLIN*      CLOUDY    72  71  97 E5        29.90S
WAKEFIELD      RAIN      72  69  90 SE5       29.90S FOG
$$

VAZ020-022-025-037-045-040400-
WEST CENTRAL AND SOUTHWEST VIRGINIA

CITY           SKY/WX    TMP DP  RH WIND       PRES   REMARKS
STAUNTON*      CLOUDY    69  66  89 CALM      29.97S FOG
WAYNESBORO*    CLOUDY    67  65  93 CALM      29.97R
HOT SPRINGS VA DRZL/FOG  62  62 100 CALM      30.03R VSB<1/4
LYNCHBURG      CLOUDY    68  67  96 NE5       29.95R
DANVILLE       CLOUDY    72  69  90 NE6       29.92R
SOUTH BOSTON*  CLOUDY    70  69  96 MISG      29.91S
MARTINSVILLE   CLOUDY    70  70 100 NW3       29.97R
ROANOKE        LGT RAIN  68  67  96 CALM      29.97R FOG
BLACKSBURG     RAIN      66  66 100 E5        30.01S
DUBLIN*        DRIZZLE   67  67 100 CALM      30.00R
MARION*        RAIN      68  66  95 CALM      30.02S
HILLSVILLE*    LGT RAIN  66  66  99 SW5       30.00R
RICHLANDS*     HVY RAIN  66  66 100 SW6       30.00R
WISE*          RAIN      64  64 100 W7        30.01R
ABINGDON*      HVY RAIN  70  69  98 CALM      29.98R
$$

MDZ021>025-VAZ099-100-040400-
SOUTHERN MARYLAND AND THE DELMARVA PENINSULA

CITY           SKY/WX    TMP DP  RH WIND       PRES   REMARKS
PATUXENT RIVER CLOUDY    74  66  76 SE12G21   29.94R
BAY BRIDGE APT LGT RAIN  73  63  68 SE7       29.95R
LEONARDTOWN    CLOUDY    70  64  83 SE3       29.95S
DOVER          CLOUDY    70  67  92 SE3       29.94S
GEORGETOWN     CLOUDY    69  66  90 SE3       29.96F
EASTON         CLOUDY    73  67  84 SE5       29.98S
CAMBRIDGE      CLOUDY    72  64  78 SE6       29.94S
SALISBURY      CLOUDY    69  66  90 SE5       29.95S
OCEAN CITY     CLOUDY    73  67  81 SE9       29.96S
WALLOPS ISLAND CLOUDY    73  69  87 SE14      29.95S
ACCOMACK*      CLOUDY    73  70  88 SE7       29.93F
$$

NCZ012>017-030>032-040400-
NORTH CENTRAL AND EASTERN NORTH CAROLINA

CITY           SKY/WX    TMP DP  RH WIND       PRES   REMARKS
ROANOKE RAPIDS FAIR      72  72 100 CALM      29.89R
RALEIGH        MOCLDY    74  72  93 W6        29.90R
ELIZABETH CITY CLOUDY    75  73  93 S6        29.90R
AHOSKIE*       LGT RAIN N/A N/A N/A CALM      29.89S
EDENTON*       CLOUDY    75  72  91 S7        29.90S
CURRITUCK*     CLOUDY    75  73  92 S3        29.90S
KILL DEVIL HLS CLOUDY    76  73  92 S3        29.90F
MANTEO         CLOUDY    77  74  90 SW10      29.91F
CAPE HATTERAS  MOCLDY    78  74  87 SW10G20   29.92S
TARBORO*         N/A     76  73  91 CALM      29.89S
GOLDSBORO      PTCLDY    76  74  94 SW7       29.89R
WASHINGTON     PTCLDY    74  73  96 CALM      29.91R
GREENVILLE     PTCLDY    73  73 100 CALM      29.92R
NEW BERN       PTCLDY    76  73  91 SW7       29.93R
WILMINGTON     PTCLDY    75  69  81 SW12      29.95R
$$

VAZ048-040400-
ELSEWHERE

CITY           SKY/WX    TMP DP  RH WIND       PRES   REMARKS
HARRISBURG PA  CLOUDY    71  64  78 CALM      29.93S
BALTIMORE      CLOUDY    72  65  78 CALM      29.94R
ANNAPOLIS      CLOUDY    75  66  73 SE16      29.94R
ANDREWS AFB    CLOUDY    69  69  98 E3        29.94R
PHILADELPHIA   CLOUDY    73  64  73 SE3       29.97S
HENDERSON NC   LGT RAIN  73  70  92 CALM      29.91R
GREENSBORO     MOCLDY    72  72 100 W6        29.94R
ROCKY MOUNT    MOCLDY    75  74  96 CALM      29.89R FOG
$$

VAZ100-040400-
MARINE

STATION/POSITION TIME  TEMP    WIND        PRES    WAVE   SWELL
                       AIR SEA DIR/SP/G            HT/PER HT/PER
                 (UTC) (F)     (DEG/KT/KT) (MB)    (FT/S) (FT/S)
BRANDYWINE LGT   0200   71 72  150/ 11/ 12 1015.0R
CAPE MAY NJ      0200   71 77  120/  3/  4 1014.5R
LEWES DE         0200   72 73  140/  4/  5 1014.5R
15NM E FENWICK I 0250   73 74              1014.0F   3/ 7
OCEAN-CITY-INLET 0200   73 73  140/  5/  9 1014.2S
WACHAPREAGUE VA  0200   75 80  110/ 11/ 14 1013.9F
THOMAS POINT MD  0320   73 77  130/ 11/ 12 1014.3
GOOSES REEF MD   0300   74 77  140/ 14/ 16 1014.5R
COVE POINT MD    0200   74     160/ 13/ 19 1014.0F
SOLOMONS ISLAND  0200      79                N/A
BISHOPS HEAD MD  0200   74     120/ 14/ 16 1013.3F
PINEY POINT MD   0200          160/ 18/ 20   N/A
CAMBRIDGE MD     0200   72 79  130/  4/  7 1013.7S
LEWISETTA VA     0200   75 80  140/ 12/ 14 1012.8F
RAPPAHANNOCK LGT 0200          110/ 12/ 14 1013.9S
STINGRAY PT      0300   76 80  130/ 16/ 17 1012.9F   2/ 3
YORK RVR RNG VA  0200   75     130/ 17/ 19 1012.4R
YORKTOWN VA      0200   74 79  110/ 12/ 14 1012.6R
JAMESTOWN VA     0300   73 82   90/  6/ 12   N/A
DOMINION TERM VA 0200   74      90/ 12/ 15 1012.4F
KIPTOPEKE VA     0200      83  120/  7/ 12   N/A
CHES BAY BRIDGE  0200   75 75   80/ 15/ 16 1012.4R
CAPE HENRY VA    0200   75     100/ 13/ 16 1011.2R
CHESAPEAKE LGHT  0200   76     120/ 19/ 21 1013.2F
WILLOUBY STN VA  0200   74      90/ 11/ 13 1013.5F
CAPE HENRY BUOY  0228      78                N/A     3/ 9
1ST LANDING BUOY 0300      76              1012.0F   2/ 3
CAPE CHARLES BUO 0226      79                N/A     3/ 8   2/ 8
OFFSHORE WE BUOY 0211      78                N/A     3/ 9   2/ 9
64NM E OF VA BCH 0250   77 77  120/ 12/ 16 1012.8F   3/ 8   3/ 8
DUCK PIER NC     0200   76 76  160/ 10/ 11 1011.9R
44100 DUCK FRF   0224      76                N/A     3/ 8
44056 DUCK FRF   0211      77                N/A     2/15   2/15
OREGON INLET NC  0200   79 83  220/ 13/ 15 1012.8R
HATTERAS NC      0200   78 79  210/  9/ 13 1012.7R
DIAMOND SHLS NC  0250   81 81  220/ 19/ 23 1012.8R   6/ 5   2/15
CAPE LOOKOUT NC  0300   78     220/ 14/ 20 1013.3R
$$


USA.gov is the U.S. government's official web portal to all federal, state and local government web resources and services.